Location: Beaurecueil
(43.5122°N, 5.5450°E)
Time: 10:50:25
(UTC+00:00)

Daily predictions for brighter satellites

Satellite Brightness Start Highest point End
(mag) Time Altitude Azimuth Time Altitude Azimuth Time Altitude Azimuth
Cosmos 1943 3.4 18:05:17 10° NNW 18:10:48 52° ENE 18:16:19 10° SE
Helios 1A Rocket 3.7 18:06:55 10° S 18:10:56 57° W 18:15:01 10° NNW
Cosmos 1939 Rocket 3.6 18:07:11 10° S 18:11:15 60° W 18:15:22 10° NNW
Okean-O 2.8 18:07:10 10° SSE 18:11:36 82° WSW 18:16:04 10° NNW
Lacrosse 5 rocket 3.2 18:08:13 10° W 18:11:58 30° NNW 18:15:54 10° NNE
Ariane Rocket 4.3 18:11:17 10° ESE 18:15:06 22° ENE 18:18:57 10° NNE
Cosmos 1437 3.0 18:16:12 10° N 18:19:04 40° ENE 18:21:54 10° SSE
NOSS 2-2 (C) 3.9 18:15:59 10° S 18:19:04 28° ESE 18:22:16 10° ENE
CZ-2D R/B 3.9 18:16:17 10° S 18:20:07 60° W 18:24:00 10° NNW
Meteor 1-21 4.3 18:16:30 10° N 18:22:03 58° ENE 18:27:32 10° SSE
CSL-04 Debris 4.2 18:17:27 10° SSE 18:22:47 69° ENE 18:28:09 10° N
USA 116 3.4 18:20:28 10° NNE 18:23:54 70° ESE 18:27:42 10° S
GP-B 3.7 18:21:16 10° N 18:25:41 62° W 18:30:03 10° SSW
YAOGAN 1 2.8 18:22:53 10° S 18:27:12 78° WSW 18:31:33 10° NNW
HJ-1C 3.4 18:26:28 10° SSE 18:29:41 57° ENE 18:32:56 10° N
Cosmos 1603 3.7 18:24:36 10° NNW 18:30:18 84° ENE 18:35:56 10° SSE
Cosmos 1898 Rocket 3.6 18:25:10 10° SSW 18:30:20 84° WNW 18:35:33 10° NNE
CSL-04 Rocket 3.7 18:27:06 10° SSE 18:32:30 79° ENE 18:38:00 10° NNW
Cosmos 1867 4.1 18:28:51 10° NNW 18:34:05 44° NE 18:38:37 13° ESE
Okean 2 3.5 18:31:17 10° N 18:35:29 81° W 18:39:37 10° S
USA 102 4.4 18:37:58 10° SSE 18:43:02 79° ENE 18:47:49 10° NNW
USA 234 3.8 18:37:41 10° ENE 18:43:34 35° SE 18:49:25 10° SSW
Cosmos 1782 Rocket 3.8 18:43:22 10° SSW 18:47:45 73° W 18:52:12 10° N
Cosmos 1975 3.8 18:44:53 10° SSW 18:48:52 52° WNW 18:52:52 10° N
CZ-4 R/B 3.2 18:45:34 10° SSW 18:49:26 35° W 18:53:20 10° NNW
Cosmos 2151 Rocket 4.3 18:45:33 10° SSE 18:49:28 31° E 18:53:25 10° NNE
Cosmos 372 Rocket 4.1 18:44:26 10° S 18:49:29 50° ESE 18:54:33 10° NNE
USA 186 2.3 18:48:48 22° SE 18:50:15 36° ENE 18:53:14 10° N
Cosmos 1025 Rocket 3.5 18:49:09 10° N 18:53:16 39° ENE 18:56:09 18° SE
Cosmos 1072 Rocket 4.5 18:48:58 10° S 18:55:06 65° E 19:01:22 10° NNE
Cosmos 1937 Rocket 4.0 18:54:50 10° SSW 19:00:02 64° WNW 19:05:15 10° NNE
Nadezhda 4 Rocket 4.3 18:54:16 10° N 19:00:07 44° ENE 19:04:42 16° SE
OBJECT-B 2.5 19:01:23 19° NE 19:01:23 19° NE 19:03:15 10° NNE
Cosmos 2034 Rocket 4.2 18:55:19 10° SSE 19:01:22 48° E 19:07:26 10° NNE
OPS 6432 4.4 18:59:31 10° NW 19:02:45 86° NE 19:05:00 24° SE
Cosmos 1125 Rocket 4.3 18:58:35 10° SSE 19:03:01 28° E 19:07:28 10° NE
CZ-2C R/B 2.5 19:01:37 10° SW 19:04:11 19° S 19:04:39 18° SSE
Exosat Rocket 4.4 18:59:20 10° SSE 19:04:19 29° ESE 19:08:39 10° NE
FREGAT/IRIS 3.4 19:05:32 28° NE 19:05:32 28° NE 19:07:16 10° N
MOS 1 Rocket 3.3 19:00:30 10° N 19:04:59 76° WNW 19:09:17 10° SSW
Cosmos 1674 3.8 19:06:44 10° NNE 19:09:42 26° ENE 19:09:42 26° ENE
Cosmos 1975 Rocket 4.1 19:08:54 10° NNW 19:13:04 47° W 19:17:11 10° SSW
NOSS 2-2 (E) 3.9 19:12:53 10° SW 19:16:17 51° NW 19:20:07 10° NNE
In-Cosmos 22 4.0 19:11:54 10° N 19:17:12 74° E 19:21:24 17° SSE
Resurs 01 Rocket 2.8 19:19:16 25° ENE 19:19:16 25° ENE 19:22:48 10° NNE
H-2A R/B 3.0 19:14:44 10° S 19:19:28 46° W 19:24:20 10° NNW
ARGOS 3.6 19:15:18 10° S 19:20:35 63° WSW 19:25:57 10° NNW
ATLAS 2AS CENTAUR R/B 4.4 19:14:41 10° SSE 19:24:48 17° ENE 19:26:52 10° ENE
Cosmos 1707 3.0 19:18:48 10° NNW 19:22:36 64° W 19:25:43 15° S
SJ-6B 2.5 19:21:48 41° SSE 19:22:58 75° ENE 19:26:44 10° N
NOSS 2-2 (D) 3.8 19:21:19 10° SW 19:24:44 54° NW 19:28:31 10° NNE
CZ-2C R/B 2.6 19:20:01 10° NNE 19:25:34 77° ESE 19:31:10 10° S
MOS 1 4.2 19:23:05 18° SSE 19:27:23 81° ENE 19:33:08 10° NNW
KORONAS-FOTON 4.5 19:23:59 10° N 19:27:14 38° ENE 19:27:14 38° ENE
Cosmos 1174 4.4 19:23:26 10° SSW 19:28:12 70° ESE 19:34:15 10° NE
Cosmos 1048 Rocket 4.0 19:27:15 10° NNW 19:32:32 62° ENE 19:34:10 42° SE
Cosmos 1844 3.8 19:27:45 10° S 19:33:14 50° ESE 19:38:40 10° NE
CENTAUR R/B 3.5 19:27:00 10° NNW 19:34:44 50° NE 19:38:32 32° E
Cosmos 1634 Rocket 4.4 19:34:23 37° ESE 19:35:04 38° E 19:40:42 10° NNE
ARIANE 5 R/B 4.3 19:37:42 19° NE 19:37:42 19° NE 19:39:49 10° NNE
SL-08 RB Rocket 4.3 19:32:47 11° S 19:37:03 55° W 19:41:34 10° NNW
Cosmos 2263 Rocket 4.1 19:33:31 10° WSW 19:38:20 29° NW 19:43:12 10° N
Cosmos 2285 Rocket 4.0 19:33:27 10° S 19:39:31 52° ESE 19:45:38 10° NNE
ATLAS 3B R/B 4.1 19:34:54 10° NNW 19:40:13 23° NNE 19:42:49 19° ENE
Milstar 3 Cent rocket 4.2 19:38:25 10° SSW 19:39:33 11° S 19:39:33 11° S
ISS -3.3 19:37:58 10° WSW 19:41:14 60° NW 19:41:14 60° NW
USA 238 DEB 3.9 19:35:29 10° NNW 19:42:43 69° NE 19:45:37 40° ESE
USA 238 3.9 19:35:35 10° NNW 19:42:49 69° NE 19:45:42 40° ESE
Abrixas rocket 3.8 19:40:32 10° WNW 19:42:31 26° NNW 19:42:31 26° NNW
Cosmos 1844 Rocket 2.5 19:39:36 10° SSW 19:45:08 77° ESE 19:50:45 10° NNE
Okean 2 Rocket 4.2 19:41:50 10° SSW 19:46:09 46° WNW 19:50:29 10° N
Okean 1 Rocket 3.5 19:51:22 50° NE 19:51:22 50° NE 19:54:53 10° NNE
Lacrosse 5 rocket 4.1 19:49:51 10° NW 19:52:24 15° N 19:55:00 10° NNE
Ariane Rocket 3.8 19:49:58 17° S 19:53:43 50° W 19:58:39 10° NNW
Meteor 1-15 Rocket 4.2 19:51:53 10° S 19:57:29 85° W 20:03:13 10° N
Resurs 1-3 3.5 19:57:58 87° WSW 19:57:59 87° WSW 20:02:25 10° NNW
Cosmos 1092 Rocket 3.8 19:52:27 10° N 19:58:38 77° E 20:00:15 51° SSE
Cosmos 2195 Rocket 4.4 19:55:41 10° N 20:01:57 72° E 20:03:07 58° SE
SPOT 3 Rocket 3.4 20:03:38 69° S 20:04:17 88° WSW 20:09:28 10° NNW
Cosmos 494 Rocket 3.8 20:00:16 10° NNW 20:05:33 78° ENE 20:05:36 78° ENE
Cosmos 2026 Rocket 3.9 19:59:49 10° N 20:06:10 67° E 20:06:56 62° ESE
CZ-2C R/B 4.2 20:02:17 10° NNE 20:05:30 47° NNE 20:05:30 47° NNE
Meteor 2-13 Rocket 4.4 20:01:08 10° N 20:07:22 89° WSW 20:09:01 52° S
Cosmos 1833 Rocket 4.1 20:03:46 10° N 20:07:47 24° NE 20:07:47 24° NE
NOSS 3-2 (A) 4.1 20:03:26 10° NW 20:11:05 81° WSW 20:13:57 46° SSE
Terra 4.2 20:19:13 12° NNE 20:19:13 12° NNE 20:19:48 10° NNE
Cosmos 1428 Rocket 4.3 20:12:13 10° N 20:18:32 78° E 20:18:51 76° ESE
Cosmos 1626 4.5 20:16:45 10° N 20:17:51 18° N 20:17:51 18° N
USA 234 3.4 20:20:21 10° NE 20:26:53 73° NW 20:33:24 10° WSW
Meteor 2-5 Rocket 3.8 20:24:50 10° NNW 20:30:27 71° W 20:30:35 71° WSW
OBJECT-B 3.9 20:34:35 15° WNW 20:34:35 15° WNW 20:35:35 10° NW
NOSS 3-2 (C) 4.0 20:37:35 10° NW 20:45:14 78° WSW 20:46:11 70° S
Cosmos 2082 Rocket 3.8 20:43:30 10° N 20:46:33 24° NNE 20:46:33 24° NNE
Resurs 01 Rocket 3.6 20:56:50 27° WNW 20:56:50 27° WNW 20:59:32 10° NNW
COSMOS 2406 4.1 20:50:30 10° NNW 20:54:20 43° N 20:54:20 43° N
Meteor 1-24 Rocket 4.4 20:51:53 10° NNW 20:56:22 49° WNW 20:56:22 49° WNW
Lacrosse 4 Rocket 4.4 21:02:09 10° N 21:02:11 10° N 21:02:11 10° N
ATLAS 2AS CENTAUR R/B 3.1 21:03:03 10° SW 21:11:59 71° N 21:18:58 10° NE
CENTAUR R/B 3.6 21:17:47 10° NW 21:25:43 52° WSW 21:25:44 52° WSW
ATLAS 3B R/B 3.4 21:25:06 10° NW 21:30:03 50° NNW 21:30:03 50° NNW
